This demonstration page uses our WeatherBlox Daily Observations layout. Learn more.

Left ArrowRight Arrow

Hourly Observations for July 4, 2022

Temp ( °F °C ) Dew Point ( °F °C ) Humidity (%) Winds ( mph kmh ) Pressure ( in mb ) Visibility ( mi km ) Precip ( " mm )
12:52 am 00:52 Mostly Cloudy 79 26.1 73 22.8 82 82 SSE 15 24 29.88 1012 10 16 0.00 0.00
1:52 am 01:52 Mostly Cloudy 79 26.1 73 22.8 82 82 SSE 14 22 29.88 1012 10 16 0.00 0.00
2:42 am 02:42 Cloudy with Thunderstorms 79 26.1 72 22.2 79 79 S 15 24 29.86 1011 10 16 0.00 0.00
2:52 am 02:52 Cloudy with Thunderstorms 79 26.1 73 22.8 82 82 S 17 28 29.89 1012 7 11 0.00 0.00
3:16 am 03:16 Cloudy with Strong Thunderstorms 76 24.4 74 23.3 94 94 W 21 33 29.89 1012 1 1 0.04 1.02
3:28 am 03:28 Cloudy with Strong Thunderstorms 72 22.2 70 21.1 94 94 VRB 6 9 29.90 1012 2 2 0.29 7.37
3:52 am 03:52 Cloudy with Thunderstorms 73 22.8 71 21.7 94 94 ESE 6 9 29.89 1012 7 11 0.77 19.56
4:52 am 04:52 Cloudy with Light Rain 73 22.8 71 21.7 94 94 ESE 7 11 29.88 1012 10 16 0.04 1.02
5:17 am 05:17 Cloudy with Thunderstorms 74 23.3 72 22.2 94 94 SSE 7 11 29.88 1012 10 16 0.02 0.51
5:42 am 05:42 Cloudy with Light Rain 74 23.3 72 22.2 94 94 SSE 6 9 29.88 1012 7 11 0.05 1.27
5:52 am 05:52 Cloudy with Light Rain 74 23.3 72 22.2 94 94 SSE 8 13 29.88 1012 7 11 0.06 1.52
6:52 am 06:52 Cloudy with Light Rain 74 23.3 72 22.2 94 94 S 10 17 29.86 1011 10 16 0.02 0.51
7:52 am 07:52 Cloudy with Light Rain 74 23.3 72 22.2 94 94 SSE 12 19 29.86 1011 10 16 0.01 0.25
8:52 am 08:52 Mostly Cloudy 76 24.4 72 22.2 88 88 SSE 16 26 29.84 1011 10 16 0.01 0.25
9:52 am 09:52 Mostly Cloudy 78 25.6 72 22.2 82 82 S 17 28 29.81 1010 10 16 0.00 0.00
10:52 am 10:52 Mostly Cloudy 83 28.3 73 22.8 72 72 S 17 28 29.79 1009 10 16 0.00 0.00
11:52 am 11:52 Partly Cloudy 89 31.7 73 22.8 59 59 S 15 24 29.79 1009 10 16 0.00 0.00
12:52 pm 12:52 Partly Cloudy 91 32.8 72 22.2 54 54 S 15 24 29.78 1008 10 16 0.00 0.00
1:52 pm 13:52 Partly Cloudy 94 34.4 71 21.7 48 48 S 21 33 29.76 1008 10 16 0.00 0.00
2:52 pm 14:52 Partly Cloudy 94 34.4 70 21.1 46 46 SSW 17 28 29.75 1008 10 16 0.00 0.00
3:52 pm 15:52 Partly Cloudy 96 35.6 71 21.7 44 44 SSW 16 26 29.74 1007 10 16 0.00 0.00
4:52 pm 16:52 Partly Cloudy 97 36.1 71 21.7 43 43 SSW 20 31 29.73 1007 10 16 0.00 0.00
5:52 pm 17:52 Mostly Sunny 97 36.1 70 21.1 42 42 SSW 12 19 29.74 1007 10 16 0.00 0.00
6:52 pm 18:52 Mostly Sunny 95 35 71 21.7 46 46 S 17 28 29.73 1007 10 16 0.00 0.00
7:52 pm 19:52 Mostly Sunny 93 33.9 71 21.7 49 49 S 16 26 29.74 1007 10 16 0.00 0.00
8:52 pm 20:52 Mostly Sunny 91 32.8 71 21.7 52 52 S 12 19 29.75 1008 10 16 0.00 0.00
9:52 pm 21:52 Clear 86 30 72 22.2 63 63 SSE 9 15 29.77 1008 10 16 0.00 0.00
10:52 pm 22:52 Clear 83 28.3 72 22.2 70 70 SSE 8 13 29.79 1009 10 16 0.00 0.00
11:52 pm 23:52 Mostly Clear 82 27.8 72 22.2 72 72 SSE 9 15 29.80 1009 10 16 0.00 0.00

Powered by AerisWeather